Home > Weather > Jacksonville > Past weeks

Flag for USA Past Weather in Jacksonville, North Carolina, USA — Yesterday and Last 2 Weeks

Now
86 °F

Sunny.


Feels Like: 93 °F
Forecast: 78 / 94 °F
Wind: 7 mph from Southwest

Location: Jacksonville - New River

Current Time: Jul 28, 2016 at 10:08:26 PM

Latest Report: Jul 28, 2016 at 8:56 PM


Visibility: 10 mi

Pressure: 29.88 "Hg

Humidity: 65%

Dew Point: 73 °F

Location of JacksonvilleLocation

Past Weather in Jacksonville — Graph

°F

Jacksonville Temperature Yesterday

Maximum temperature yesterday: 97 °F (at 2:56 PM)
Minimum temperature yesterday: 78 °F (at 3:56 AM)
Average temperature yesterday: 86 °F

High & Low Weather Summary for the Past Weeks

 TemperatureHumidityPressure
High97 °F (Jul 27, 2:56 PM)97% (Jul 20, 5:56 AM)30.25 "Hg (Jul 20, 5:56 AM)
Low70 °F (Jul 20, 5:56 AM)39% (Jul 28, 3:56 PM)29.86 "Hg (Jul 28, 4:56 PM)
Average82 °F75%30.07 "Hg
* Reported Jul 13 8:56 PM — Jul 28 8:56 PM, Jacksonville, Weather by CustomWeather, © 2016

Note: Actual official high and low records may vary slightly from our data, if they occured in-between our weather recording intervals... More about our weather records

Advertising

Jacksonville Weather History for the Previous 24 Hours

Scroll right to see more
 ConditionsComfort  
Time TempWeatherWind HumidityBarometerVisibility
8:56 PM
Thu, Jul 28
86 °FSunny.7 mph65%29.88 "Hg10 mi
7:56 PM89 °FSunny.8 mph59%29.87 "Hg10 mi
6:56 PM93 °FSunny.8 mph50%29.86 "Hg10 mi
5:56 PM95 °FSunny.14 mph43%29.86 "Hg10 mi
4:56 PM96 °FPassing clouds.13 mph40%29.86 "Hg10 mi
3:56 PM97 °FPassing clouds.12 mph39%29.87 "Hg10 mi
2:56 PM97 °FScattered clouds.12 mph42%29.89 "Hg10 mi
1:56 PM96 °FScattered clouds.6 mph49%29.91 "Hg9 mi
12:56 PM95 °FSunny.8 mph52%29.93 "Hg10 mi
11:56 AM93 °FPassing clouds.8 mph56%29.94 "Hg10 mi
10:56 AM92 °FPassing clouds.7 mph60%29.95 "Hg10 mi
9:56 AM89 °FPassing clouds.7 mph65%29.95 "Hg10 mi
8:56 AM86 °FSunny.8 mph72%29.96 "Hg10 mi
7:56 AM82 °FSunny.10 mph82%29.95 "Hg10 mi
6:56 AM79 °FClear.8 mph90%29.94 "Hg10 mi
5:56 AM79 °FClear.7 mph90%29.93 "Hg10 mi
4:56 AM78 °FClear.3 mph90%29.93 "Hg10 mi
3:56 AM78 °FClear.No wind90%29.94 "Hg10 mi
2:56 AM79 °FClear.5 mph84%29.94 "Hg10 mi
1:56 AM80 °FClear.3 mph79%29.95 "Hg10 mi
12:56 AM80 °FClear.9 mph81%29.96 "Hg10 mi
11:56 PM
Wed, Jul 27
81 °FClear.15 mph82%29.98 "Hg10 mi
10:56 PM84 °FPassing clouds.5 mph74%29.97 "Hg10 mi
Weather by CustomWeather, © 2016

See weather overviewHow to use our weather pages